Flag for Brazil Weather past 2 weeks in São Paulo, São Paulo, Brazil

Now
57 °F

Low clouds.


Feels Like: 56 °F
Forecast: 52 / 73 °F
Wind: 7 mph from Southeast

Location: Sao Paulo Airport

Current Time: Aug 20, 2014 at 7:51:17 AM

Latest Report: Aug 20, 2014 at 7:00 AM


Visibility: 4 mi

Pressure: 30.27 "Hg

Humidity: 82%

Dew point: 52 °F

Location of São PauloLocation

Historic Weather in São Paulo — Graph

°F

São Paulo temperature yesterday

Maximum temperature yesterday: 66 °F (at 12:00 PM)
Minimum temperature yesterday: 55 °F (at 7:00 AM)
Average temperature yesterday: 61 °F

Past Weeks' High & Low Weather Summary

 TemperatureHumidityPressure
High84 °F (Aug 12, 2:00 PM)88% (Aug 5, 6:00 AM)30.42 "Hg (Aug 5, 6:00 AM)
Low48 °F (Aug 14, 12:00 AM)17% (Aug 6, 4:00 PM)30.04 "Hg (Aug 13, 2:00 AM)
Average62 °F67%30.27 "Hg
* Reported Aug 5 6:00 AM — Aug 20 6:00 AM, São Paulo, Weather by CustomWeather, © 2014

Note: Actual official high and low records may vary slightly from our data, if they occured in-between our weather recording intervals... More about our weather records

Advertising

São Paulo weather history for previous 24 hours

 ConditionsComfort  
Time TempWeatherWind HumidityBarometerVisibility
6:00 AM
Aug 20
57 °FBroken clouds.6 mph82%30.27 "Hg4 mi
5:00 AM55 °FPassing clouds.3 mph82%30.24 "Hg4 mi
4:00 AM55 °FClear.5 mph82%30.24 "Hg4 mi
3:00 AM55 °FClear.5 mph82%30.24 "Hg5 mi
2:00 AM57 °FPassing clouds.3 mph82%30.24 "Hg4 mi
1:00 AM59 °FPassing clouds.5 mph77%30.27 "Hg5 mi
12:00 AM59 °FLow clouds.8 mph77%30.27 "HgN/A
11:00 PM
Aug 19
61 °FPassing clouds.6 mph77%30.27 "HgN/A
10:00 PM59 °FMostly cloudy.6 mph82%30.27 "Hg5 mi
9:00 PM61 °FLow clouds.7 mph77%30.27 "Hg4 mi
8:00 PM61 °FPassing clouds.10 mph72%30.27 "HgN/A
7:00 PM61 °FPassing clouds.10 mph72%30.24 "Hg4 mi
6:00 PM61 °FOvercast.12 mph77%30.24 "Hg4 mi
5:00 PM64 °FPassing clouds.13 mph68%30.24 "Hg5 mi
4:00 PM66 °FPassing clouds.12 mph64%30.21 "HgN/A
3:00 PM66 °FScattered clouds.10 mph64%30.21 "HgN/A
2:00 PM66 °FScattered clouds.9 mph64%30.24 "HgN/A
1:00 PM66 °FPartly sunny.12 mph64%30.24 "HgN/A
12:00 PM66 °FScattered clouds.8 mph60%30.27 "HgN/A
11:00 AM64 °FScattered clouds.9 mph64%30.27 "HgN/A
10:00 AM61 °FBroken clouds.9 mph72%30.27 "HgN/A
9:00 AM59 °FBroken clouds.10 mph77%30.27 "HgN/A
8:00 AM59 °FSunny.7 mph77%30.24 "Hg10 mi
7:00 AM55 °FClear.3 mph82%30.24 "Hg4 mi
Weather by CustomWeather, © 2014

See weather overviewHow to use our weather pages